VTSM

Details ICAO VTSM (USM)
Name Samui
Region Thailand
Timezone Asia/Bangkok (UTC+7.0)
Plans Departing 89
Arriving 112
Stats Elevation 64 ft / 20 m (AMSL)
Location 9.547939° 100.062457°
Runways 1
Magnetic Variation 0.379° W
Sunrise 2018-05-21 22:59:56 UTC / 2018-05-22 05:59:56 Local
Sunset 2018-05-22 11:35:43 UTC / 2018-05-22 18:35:43 Local
Advertisement - Login to hide

Runways

ID Width Length Bearing (true) Bearing (mag) Surface Threshold Offset Overrun Length
17 148 ft / 45 m 6,795 ft / 2,071 m 174.49° 174.87° Asphalt 853 ft / 260 m 148 ft / 45 m
35 148 ft / 45 m 6,795 ft / 2,071 m 354.49° 354.87° Asphalt 1,109 ft / 338 m 197 ft / 60 m

Map

Weather


0- 5 10 15 20 25 30 35+ Temperature / ° C

Clouds and Precipitation
Forecast for 2018-05-22 12:00 UTC. Updated 3 hours ago

Ground ~20,000 ft ~40,000 ft Winds

METAR

VTSM 221430Z VRB01KT 9999 FEW020 30/27 Q1009 NOSIG

TAF

TAF VTSM 221100Z 2212/2312 00000KT 9999 FEW020 BECMG 2302/2304 14010KT TEMPO 2304/2310 VRB10G20KT 6000 -RA SCT015 BKN100

Frequencies

Recorded 128.60 MHz ATIS
Approach 129.60 MHz APP
Tower 118.90 MHz TWR
Warning: Do not use this data for real-world aviation or navigation. No guarantee of current accuracy is given.